[[{"header":{"parameterUnit":"m.s-1","parameterCategory":1,"la1":30.2992,"la2":30.254,"lo1":-89.0895,"lo2":-89.0443,"dy":0.0025,"dx":0.0025,"nx":19,"ny":19,"refTime":"2026-04-24T09:00:00:Z","depth":0,"parameterNumber":2,"parameterNumberName":"U-component_of_WINDS"},"data":[0,0,0,-2.1711,-2.1712,-2.1733,-2.1733,-2.1764,-2.1764,0,0,0,0,0,0,0,0,0,0,0,-2.1706,-2.1707,-2.1711,-2.1712,-2.1733,-2.1733,-2.1764,-2.1764,0,0,0,0,0,0,0,0,0,0,0,-2.1706,-2.1707,-2.1707,-2.1712,-2.1733,-2.1733,-2.1764,-2.1747,0,0,0,0,0,0,0,0,0,0,-2.1725,-2.1722,-2.1706,-2.1707,-2.1712,-2.1733,-2.1733,-2.1746,-2.1748,-2.1756,0,-2.1763,0,-2.1764,-2.1767,-2.1767,0,0,0,-2.1711,-2.172,-2.1725,-2.1707,-2.1712,-2.1733,-2.1723,-2.1747,-2.1749,-2.1758,-2.1763,-2.1764,-2.1764,-2.1767,-2.1767,-2.1815,-2.1815,0,0,-2.171,-2.1711,-2.1723,-2.1726,-2.1723,-2.1723,-2.1724,-2.1748,-2.1754,-2.1763,-2.1765,-2.1765,-2.1767,-2.1767,-2.1814,-2.1815,0,0,0,-2.1707,-2.171,-2.1714,-2.1725,-2.1729,-2.1723,-2.1725,-2.1752,-2.1754,-2.1765,-2.1765,-2.1767,-2.1768,-2.1814,-2.1814,-2.1828,0,0,0,-2.1706,-2.1709,-2.1714,-2.1715,-2.1728,-2.1741,-2.1729,-2.1752,-2.1755,-2.1765,-2.1767,-2.1768,-2.1814,-2.1814,-2.1827,-2.1834,0,0,0,-2.1704,-2.1708,-2.1712,-2.1715,-2.1724,-2.174,-2.1743,-2.1752,-2.1755,-2.1767,-2.1768,-2.1814,-2.1814,-2.1826,-2.1832,-2.1846,0,0,0,-2.1703,-2.1724,-2.1712,-2.1736,-2.1724,-2.1749,-2.1743,-2.1761,-2.1773,-2.1767,-2.1814,-2.1814,-2.1826,-2.1831,-2.1845,-2.1856,-2.1861,0,0,-2.173,-2.1727,-2.1741,-2.1731,-2.1759,-2.1745,-2.1775,-2.1785,-2.1786,-2.1805,-2.1806,-2.1827,-2.1832,-2.1845,-2.1893,-2.1897,0,0,0,-2.175,-2.176,-2.1767,-2.1778,-2.1787,-2.1794,-2.1799,-2.1803,-2.182,-2.1796,-2.1837,-2.1839,-2.1847,-2.1853,-2.1856,-2.1862,-2.1817,-2.1817,-2.1817,-2.179,-2.1789,-2.1812,-2.1814,-2.1825,-2.1831,-2.184,-2.1846,-2.1842,-2.1852,-2.1857,-2.1886,-2.1893,-2.1895,-2.1902,-2.1865,-2.1865,-2.1865,-2.1865,-2.1828,-2.1841,-2.1837,-2.1857,-2.1856,-2.1874,-2.1881,-2.1878,-2.1894,-2.1882,-2.1889,-2.1875,-2.19,-2.1906,-2.1866,-2.1866,-2.1866,-2.1866,-2.1866,-2.1852,-2.1858,-2.1863,-2.1879,-2.1892,-2.1895,-2.191,-2.191,-2.191,-2.1917,-2.1922,-2.1922,-2.192,-2.192,-2.192,-2.192,-2.192,-2.192,-2.192,-2.1874,-2.1879,-2.1892,-2.1903,-2.191,-2.192,-2.1928,-2.1935,-2.1943,-2.1942,-2.1942,-2.1937,-2.1903,-2.1894,-2.1922,-2.1921,-2.1921,-2.1921,-2.1921,-2.191,-2.1902,-2.1922,-2.1929,-2.1943,-2.1956,-2.1956,-2.1971,-2.1978,-2.1986,-2.198,-2.1956,-2.1953,-2.195,-2.1942,-2.1981,-2.1981,-2.1981,-2.1981,-2.1929,-2.1928,-2.1948,-2.196,-2.1972,-2.1974,-2.1997,-2.2004,-2.2009,-2.2013,-2.2008,-2.1999,-2.1996,-2.1994,-2.1991,-2.1983,-2.2031,-2.2031,-2.2032,-2.1951,-2.1951,-2.197,-2.1975,-2.1986,-2.1995,-2.2016,-2.2031,-2.2036,-2.2034,-2.2016,-2.2014,-2.1998,-2.1994,-2.1988,-2.1983,-2.1969,0,0]},{"header":{"parameterUnit":"m.s-1","parameterCategory":1,"la1":30.2992,"la2":30.254,"lo1":-89.0895,"lo2":-89.0443,"dy":0.0025,"dx":0.0025,"nx":19,"ny":19,"refTime":"2026-04-24T09:00:00:Z","depth":0,"parameterNumber":3,"parameterNumberName":"V-component_of_WINDS"},"data":[0,0,0,4.5402,4.5401,4.5349,4.5348,4.5296,4.5296,0,0,0,0,0,0,0,0,0,0,0,4.5429,4.5429,4.5402,4.5401,4.5349,4.5348,4.5297,4.5296,0,0,0,0,0,0,0,0,0,0,0,4.5429,4.5429,4.543,4.5401,4.5349,4.5348,4.5297,4.533,0,0,0,0,0,0,0,0,0,0,4.5378,4.5416,4.5429,4.543,4.5401,4.5349,4.5348,4.5331,4.5328,4.5328,0,4.5333,0,4.5314,4.5294,4.5294,0,0,0,4.5391,4.5419,4.5394,4.543,4.54,4.5349,4.537,4.5329,4.5325,4.5323,4.5332,4.533,4.5313,4.5294,4.5294,4.5331,4.5332,0,0,4.5394,4.5426,4.5397,4.5392,4.5405,4.5371,4.5368,4.5327,4.5337,4.5332,4.5328,4.5312,4.5294,4.5293,4.5331,4.5331,0,0,0,4.5409,4.5428,4.5404,4.5395,4.5385,4.537,4.5366,4.5339,4.5329,4.5327,4.5312,4.5293,4.5293,4.533,4.5331,4.5394,0,0,0,4.541,4.5437,4.5406,4.5424,4.5386,4.5362,4.538,4.5332,4.5326,4.5312,4.5293,4.5293,4.5329,4.533,4.5391,4.5419,0,0,0,4.5428,4.5439,4.5436,4.5426,4.5405,4.5362,4.5349,4.533,4.5317,4.5294,4.5292,4.5329,4.533,4.5388,4.5414,4.5438,0,0,0,4.5456,4.5491,4.5437,4.5469,4.5406,4.5403,4.5349,4.5343,4.5331,4.5293,4.5329,4.5331,4.5387,4.5411,4.5435,4.5465,4.5481,0,0,4.5517,4.5499,4.5516,4.5466,4.5481,4.5408,4.543,4.5387,4.5354,4.534,4.5341,4.5392,4.5413,4.5438,4.5556,4.5569,0,0,0,4.5545,4.5558,4.5555,4.5546,4.5517,4.5493,4.5444,4.5428,4.5415,4.5355,4.5407,4.5418,4.5431,4.5444,4.5454,4.5463,4.5338,4.5338,4.5338,4.5676,4.5635,4.5659,4.5613,4.5605,4.5555,4.5544,4.5514,4.5472,4.5485,4.5481,4.5558,4.5574,4.5582,4.5592,4.5493,4.5493,4.5493,4.5493,4.5761,4.5772,4.5719,4.5724,4.568,4.5682,4.5635,4.5606,4.56,4.5558,4.5567,4.5524,4.5597,4.5603,4.5498,4.5497,4.5496,4.5496,4.5496,4.5842,4.584,4.5823,4.5807,4.5799,4.5748,4.5747,4.5705,4.5666,4.5675,4.5666,4.5665,4.5658,4.5674,4.5674,4.5674,4.5675,4.5675,4.5675,4.5933,4.5911,4.5916,4.5889,4.5879,4.5859,4.581,4.5797,4.5772,4.5742,4.5742,4.5699,4.5612,4.5592,4.5679,4.5678,4.5678,4.5677,4.5677,4.6035,4.6006,4.6014,4.6004,4.5968,4.5963,4.5911,4.5889,4.5872,4.5873,4.5828,4.5771,4.5748,4.5739,4.5722,4.5838,4.5838,4.5838,4.5838,4.6104,4.6089,4.6088,4.6075,4.6057,4.6011,4.6019,4.5981,4.5936,4.5923,4.59,4.5873,4.5866,4.5848,4.5836,4.5819,4.5957,4.5957,4.5957,4.6164,4.6146,4.6162,4.6121,4.6091,4.6064,4.6071,4.6055,4.5998,4.5961,4.5912,4.5906,4.5862,4.585,4.5813,4.5796,4.5764,0,0]}]]